Weather History for Keene, NH

Change the Weather History Date:

Thursday, January 24, 2013

  Actual Average Record
Temperature  
Mean Temperature 3 °F -  
Max Temperature 15 °F 34 °F 60 °F (1967)
Min Temperature -9 °F 13 °F -27 °F (1961)
Degree Days  
Heating Degree Days 62    
Moisture  
Dew Point -11 °F    
Average Humidity 55    
Maximum Humidity 92    
Minimum Humidity 27    
Precipitation  
Precipitation 0.00 in - - ()
Sea Level Pressure  
Sea Level Pressure 30.13 in    
Wind  
Wind Speed 4 mph (NW)    
Max Wind Speed 16 mph    
Max Gust Speed 25 mph    
Visibility 10 miles    
Events      
Averages and records for this station are not official NWS values.
T = Trace of Precipitation, MM = Missing Value Source: NWS Daily Summary

Daily Weather History Graph

Daily Weather History Graph

Search for Another Location

Airport:

Trip Planner

Search our weather history database for the weather conditions in past years. The results will help you decide how hot, cold, wet, or windy it might be!

Date:

Astronomy

Jan. 24, 2013 Rise Set
Actual Time 7:11 AM EST 4:51 PM EST
Civil Twilight 6:40 AM EST 5:22 PM EST
Nautical Twilight 6:06 AM EST 5:56 PM EST
Astronomical Twilight 5:32 AM EST 6:30 PM EST
Moon 2:50 PM EST (1/24) 5:07 AM EST (1/24)
Length of Visible Light 10h 41m
Length of Day
9h 40m
Waxing Gibbous, 94% of the Moon is Illuminated
Jan 24
Waxing Gibbous
Jan 26
Full
Feb 3
Last Quarter
Feb 10
New
Feb 17
First Quarter

Hourly Weather History & Observations

Time (EST) Temp. Windchill Dew Point Humidity Pressure Visibility Wind Dir Wind Speed Gust Speed Precip Events Conditions
12:15 AM -4.0 °F - -9.4 °F 78% 30.10 in 10.0 mi Calm Calm - N/A   Clear
12:35 AM -5.8 °F - -9.4 °F 84% 30.10 in 10.0 mi Calm Calm - N/A   Clear
12:55 AM -5.8 °F - -9.4 °F 84% 30.10 in 10.0 mi Calm Calm - N/A   Clear
1:15 AM -5.8 °F - -9.4 °F 84% 30.10 in 10.0 mi Calm Calm - N/A   Clear
1:35 AM -5.8 °F - -9.4 °F 84% 30.11 in 10.0 mi Calm Calm - N/A   Clear
1:55 AM -5.8 °F - -11.2 °F 77% 30.11 in 10.0 mi Calm Calm - N/A   Clear
2:15 AM -5.8 °F - - N/A% 30.11 in 10.0 mi Calm Calm - N/A   Clear
2:35 AM -7.6 °F - -11.2 °F 84% 30.11 in 10.0 mi Calm Calm - N/A   Clear
2:55 AM -7.6 °F - -11.2 °F 84% 30.10 in 10.0 mi Calm Calm - N/A   Clear
3:15 AM -7.6 °F -18.8 °F -13.0 °F 77% 30.09 in 10.0 mi SW 4.6 mph - N/A   Clear
3:35 AM -7.6 °F - -11.2 °F 84% 30.09 in 10.0 mi Calm Calm - N/A   Clear
3:55 AM -7.6 °F - -11.2 °F 84% 30.09 in 10.0 mi Calm Calm - N/A   Clear
4:15 AM -9.4 °F -20.9 °F -14.8 °F 77% 30.09 in 10.0 mi SSW 4.6 mph - N/A   Clear
4:35 AM -7.6 °F -18.8 °F -14.8 °F 71% 30.09 in 10.0 mi South 4.6 mph - N/A   Clear
4:55 AM -7.6 °F - -11.2 °F 84% 30.09 in 10.0 mi Calm Calm - N/A   Clear
5:15 AM -7.6 °F - -11.2 °F 84% 30.09 in 10.0 mi Calm Calm - N/A   Clear
5:35 AM -9.4 °F -18.6 °F -16.6 °F 71% 30.09 in 10.0 mi SSW 3.5 mph - N/A   Clear
5:55 AM -9.4 °F - -14.8 °F 77% 30.10 in 10.0 mi Calm Calm - N/A   Clear
6:15 AM -9.4 °F -18.6 °F -14.8 °F 77% 30.11 in 10.0 mi South 3.5 mph - N/A   Clear
6:35 AM -9.4 °F - -14.8 °F 77% 30.11 in 10.0 mi Calm Calm - N/A   Clear
6:55 AM -9.4 °F - -14.8 °F 77% 30.11 in 10.0 mi Calm Calm - N/A   Clear
7:15 AM -9.4 °F - -11.2 °F 92% 30.12 in 10.0 mi Calm Calm - N/A   Clear
7:35 AM -9.4 °F - -14.8 °F 77% 30.12 in 10.0 mi Calm Calm - N/A   Clear
7:55 AM -9.4 °F - -14.8 °F 77% 30.13 in 10.0 mi Calm Calm - N/A   Clear
8:15 AM -9.4 °F - -11.2 °F 92% 30.13 in 8.0 mi Calm Calm - N/A   Clear
8:35 AM -7.6 °F - -11.2 °F 84% 30.13 in 9.0 mi Calm Calm - N/A   Clear
8:55 AM -5.8 °F -14.5 °F -7.6 °F 92% 30.14 in 10.0 mi South 3.5 mph - N/A   Clear
9:15 AM -2.2 °F - -5.8 °F 85% 30.14 in 10.0 mi Calm Calm - N/A   Clear
9:35 AM -0.4 °F - -5.8 °F 78% 30.14 in 10.0 mi Calm Calm - N/A   Clear
9:55 AM 1.4 °F - -7.6 °F 66% 30.14 in 10.0 mi Calm Calm - N/A   Clear
10:15 AM 3.2 °F -12.2 °F -5.8 °F 66% 30.14 in 10.0 mi NNW 10.4 mph - N/A   Clear
10:35 AM 6.8 °F -7.8 °F -4.0 °F 61% 30.14 in 10.0 mi North 10.4 mph - N/A   Clear
10:55 AM 6.8 °F -5.9 °F -7.6 °F 52% 30.13 in 10.0 mi North 8.1 mph - N/A   Clear
11:15 AM 8.6 °F -6.3 °F -7.6 °F 48% 30.12 in 10.0 mi NNW 11.5 mph - N/A   Clear
11:35 AM 10.4 °F -0.4 °F -7.6 °F 44% 30.11 in 10.0 mi NNW 6.9 mph 17.3 mph N/A   Clear
11:55 AM 10.4 °F -4.8 °F -7.6 °F 44% 30.11 in 10.0 mi North 12.7 mph 17.3 mph N/A   Clear
12:15 PM 12.2 °F -3.1 °F -7.6 °F 41% 30.10 in 10.0 mi NNW 13.8 mph 18.4 mph N/A   Clear
12:55 PM 14.0 °F -0.8 °F -7.6 °F 38% 30.09 in 10.0 mi NNW 13.8 mph - N/A   Clear
1:15 PM 14.0 °F 0.5 °F -9.4 °F 35% 30.09 in 10.0 mi WNW 11.5 mph 20.7 mph N/A   Clear
1:35 PM 14.0 °F 2.0 °F -9.4 °F 35% 30.08 in 10.0 mi WNW 9.2 mph - N/A   Clear
1:55 PM 14.0 °F 2.0 °F -9.4 °F 35% 30.08 in 10.0 mi NW 9.2 mph 19.6 mph N/A   Clear
2:15 PM 14.0 °F 2.9 °F -9.4 °F 35% 30.08 in 10.0 mi NW 8.1 mph 20.7 mph N/A   Clear
2:35 PM 15.8 °F 0.9 °F -9.4 °F 32% 30.09 in 10.0 mi North 15.0 mph 23.0 mph N/A   Clear
2:55 PM 15.8 °F 2.7 °F -9.4 °F 32% 30.09 in 10.0 mi WNW 11.5 mph 21.9 mph N/A   Clear
3:15 PM 15.8 °F 2.1 °F -9.4 °F 32% 30.09 in 10.0 mi NW 12.7 mph 17.3 mph N/A   Clear
3:35 PM 15.8 °F 0.3 °F -11.2 °F 30% 30.10 in 10.0 mi NW 16.1 mph 21.9 mph N/A   Clear
3:55 PM 15.8 °F 0.9 °F -11.2 °F 30% 30.09 in 10.0 mi NW 15.0 mph 18.4 mph N/A   Clear
4:15 PM 15.8 °F 5.1 °F -11.2 °F 30% 30.10 in 10.0 mi NW 8.1 mph 17.3 mph N/A   Clear
4:35 PM 15.8 °F 0.9 °F -11.2 °F 30% 30.10 in 10.0 mi NNW 15.0 mph 20.7 mph N/A   Clear
4:55 PM 15.8 °F 1.4 °F -11.2 °F 30% 30.11 in 10.0 mi NW 13.8 mph 18.4 mph N/A   Clear
5:15 PM 15.8 °F 3.4 °F - N/A% 30.11 in 10.0 mi NW 10.4 mph 17.3 mph N/A   Clear
5:35 PM 15.8 °F 3.4 °F -13.0 °F 27% 30.11 in 10.0 mi WNW 10.4 mph 16.1 mph N/A   Clear
5:55 PM 14.0 °F 0.5 °F -14.8 °F 27% 30.12 in 10.0 mi NW 11.5 mph 24.2 mph N/A   Clear
6:15 PM 14.0 °F -0.8 °F -14.8 °F 27% 30.13 in 10.0 mi NNW 13.8 mph 18.4 mph N/A   Clear
6:35 PM 14.0 °F -0.8 °F -14.8 °F 27% 30.14 in 10.0 mi NW 13.8 mph 25.3 mph N/A   Clear
6:55 PM 12.2 °F -1.8 °F -14.8 °F 29% 30.15 in 10.0 mi NW 11.5 mph 20.7 mph N/A   Clear
7:15 PM 12.2 °F -1.0 °F -14.8 °F 29% 30.16 in 10.0 mi NW 10.4 mph 20.7 mph N/A   Clear
7:35 PM 12.2 °F -1.8 °F -14.8 °F 29% 30.16 in 10.0 mi NNW 11.5 mph - N/A   Clear
7:55 PM 12.2 °F 2.9 °F -14.8 °F 29% 30.17 in 10.0 mi NW 5.8 mph 16.1 mph N/A   Clear
8:15 PM 10.4 °F -3.3 °F -14.8 °F 31% 30.18 in 10.0 mi NNW 10.4 mph 17.3 mph N/A   Clear
8:35 PM 10.4 °F -1.5 °F -14.8 °F 31% 30.18 in 10.0 mi NW 8.1 mph - N/A   Clear
8:55 PM 10.4 °F -4.1 °F -14.8 °F 31% 30.19 in 10.0 mi NW 11.5 mph 19.6 mph N/A   Clear
9:15 PM 10.4 °F -2.4 °F -14.8 °F 31% 30.19 in 10.0 mi NW 9.2 mph 17.3 mph N/A   Clear
9:35 PM 8.6 °F -3.7 °F -14.8 °F 34% 30.20 in 10.0 mi NW 8.1 mph 23.0 mph N/A   Clear
9:55 PM 8.6 °F -5.5 °F -14.8 °F 34% 30.20 in 10.0 mi NW 10.4 mph 18.4 mph N/A   Clear
10:15 PM 8.6 °F -5.5 °F -14.8 °F 34% 30.19 in 10.0 mi WNW 10.4 mph 20.7 mph N/A   Clear
10:35 PM 8.6 °F -3.7 °F -11.2 °F 40% 30.21 in 10.0 mi West 8.1 mph - N/A   Clear
10:55 PM 8.6 °F 2.0 °F -13.0 °F 37% 30.22 in 10.0 mi West 3.5 mph - N/A   Clear
11:15 PM 6.8 °F -2.0 °F -13.0 °F 40% 30.23 in 10.0 mi WNW 4.6 mph - N/A   Clear
11:35 PM 6.8 °F - -13.0 °F 40% 30.23 in 10.0 mi Calm Calm - N/A   Clear
11:55 PM 6.8 °F -3.5 °F -11.2 °F 44% 30.22 in 10.0 mi NNW 5.8 mph - N/A   Clear